Time,TemperatureF,DewpointF,PressureIn,WindDirection,WindDirectionDegrees,WindSpeedMPH,WindSpeedGustMPH,Humidity,HourlyPrecipIn,Conditions,Clouds,dailyrainin,SoftwareType,DateUTC
2013-11-04 00:04:00,46.2,25.0,30.25,South,177,0.0,-999.0,44,-99.99,,,0.00,weatherlink.com 1.10,2013-11-04 05:04:00,
2013-11-04 00:19:00,46.5,24.0,30.25,South,177,0.0,-999.0,42,-99.99,,,0.00,weatherlink.com 1.10,2013-11-04 05:19:00,
2013-11-04 00:34:00,46.8,24.0,30.25,South,177,0.0,-999.0,41,-99.99,,,0.00,weatherlink.com 1.10,2013-11-04 05:34:00,
2013-11-04 00:49:00,47.0,24.0,30.25,South,177,0.0,-999.0,40,-99.99,,,0.00,weatherlink.com 1.10,2013-11-04 05:49:00,
2013-11-04 01:04:00,47.1,24.0,30.26,South,177,0.0,-999.0,40,-99.99,,,0.00,weatherlink.com 1.10,2013-11-04 06:04:00,
2013-11-04 01:19:00,47.3,24.0,30.26,South,177,0.0,-999.0,40,-99.99,,,0.00,weatherlink.com 1.10,2013-11-04 06:19:00,
2013-11-04 01:34:00,47.3,24.0,30.26,South,177,0.0,-999.0,41,-99.99,,,0.00,weatherlink.com 1.10,2013-11-04 06:34:00,
2013-11-04 01:49:00,47.3,24.0,30.27,South,177,0.0,-999.0,41,-99.99,,,0.00,weatherlink.com 1.10,2013-11-04 06:49:00,
2013-11-04 02:04:00,47.3,25.0,30.28,South,177,0.0,-999.0,42,-99.99,,,0.00,weatherlink.com 1.10,2013-11-04 07:04:00,
2013-11-04 02:19:00,47.2,25.0,30.29,South,177,0.0,-999.0,42,-99.99,,,0.00,weatherlink.com 1.10,2013-11-04 07:19:00,
2013-11-04 02:34:00,47.0,25.0,30.29,South,177,0.0,-999.0,42,-99.99,,,0.00,weatherlink.com 1.10,2013-11-04 07:34:00,
2013-11-04 02:50:00,46.9,25.0,30.30,South,177,0.0,-999.0,42,-99.99,,,0.00,weatherlink.com 1.10,2013-11-04 07:50:00,
2013-11-04 03:05:00,46.7,25.0,30.30,South,177,0.0,-999.0,42,-99.99,,,0.00,weatherlink.com 1.10,2013-11-04 08:05:00,
2013-11-04 03:20:00,46.7,24.0,30.29,South,177,0.0,-999.0,41,-99.99,,,0.00,weatherlink.com 1.10,2013-11-04 08:20:00,
2013-11-04 03:35:00,46.9,24.0,30.31,South,177,0.0,-999.0,40,-99.99,,,0.00,weatherlink.com 1.10,2013-11-04 08:35:00,
2013-11-04 03:50:00,47.3,23.0,30.31,South,177,0.0,-999.0,39,-99.99,,,0.00,weatherlink.com 1.10,2013-11-04 08:50:00,
2013-11-04 04:05:00,47.6,24.0,30.31,South,177,0.0,-999.0,39,-99.99,,,0.00,weatherlink.com 1.10,2013-11-04 09:05:00,
2013-11-04 04:20:00,48.2,24.0,30.32,SSE,159,0.0,-999.0,39,-99.99,,,0.00,weatherlink.com 1.10,2013-11-04 09:20:00,
2013-11-04 04:35:00,48.7,26.0,30.32,South,178,0.0,-999.0,42,-99.99,,,0.00,weatherlink.com 1.10,2013-11-04 09:35:00,
2013-11-04 04:50:00,49.4,31.0,30.31,SSE,148,1.0,-999.0,49,-99.99,,,0.00,weatherlink.com 1.10,2013-11-04 09:50:00,
2013-11-04 05:05:00,49.8,35.0,30.32,WNW,302,0.0,-999.0,58,-99.99,,,0.00,weatherlink.com 1.10,2013-11-04 10:05:00,
2013-11-04 05:20:00,50.0,39.0,30.32,SSE,150,0.0,-999.0,65,-99.99,,,0.00,weatherlink.com 1.10,2013-11-04 10:20:00,
2013-11-04 05:35:00,50.3,41.0,30.32,East,95,0.0,-999.0,70,-99.99,,,0.00,weatherlink.com 1.10,2013-11-04 10:35:00,
2013-11-04 05:50:00,50.1,41.0,30.32,WSW,248,0.0,-999.0,72,-99.99,,,0.00,weatherlink.com 1.10,2013-11-04 10:50:00,
2013-11-04 06:05:00,50.3,42.0,30.33,South,173,0.0,-999.0,73,-99.99,,,0.00,weatherlink.com 1.10,2013-11-04 11:05:00,
2013-11-04 06:20:00,50.4,42.0,30.33,SSE,165,1.0,-999.0,73,-99.99,,,0.00,weatherlink.com 1.10,2013-11-04 11:20:00,
2013-11-04 06:35:00,50.8,43.0,30.33,SW,232,0.0,-999.0,74,-99.99,,,0.00,weatherlink.com 1.10,2013-11-04 11:35:00,
2013-11-04 06:50:00,50.9,43.0,30.33,WSW,258,0.0,-999.0,73,-99.99,,,0.00,weatherlink.com 1.10,2013-11-04 11:50:00,
2013-11-04 07:05:00,50.9,42.0,30.34,ESE,109,0.0,-999.0,71,-99.99,,,0.00,weatherlink.com 1.10,2013-11-04 12:05:00,
2013-11-04 07:20:00,50.9,43.0,30.34,South,188,0.0,-999.0,74,-99.99,,,0.00,weatherlink.com 1.10,2013-11-04 12:20:00,
2013-11-04 07:35:00,51.5,44.0,30.35,WNW,282,0.0,-999.0,76,-99.99,,,0.00,weatherlink.com 1.10,2013-11-04 12:35:00,
2013-11-04 07:50:00,52.6,47.0,30.35,SW,225,0.0,-999.0,82,-99.99,,,0.00,weatherlink.com 1.10,2013-11-04 12:50:00,
2013-11-04 08:05:00,53.5,51.0,30.36,South,184,0.0,-999.0,92,-99.99,,,0.00,weatherlink.com 1.10,2013-11-04 13:05:00,
2013-11-04 08:20:00,54.4,53.0,30.37,WSW,242,0.0,-999.0,96,-99.99,,,0.00,weatherlink.com 1.10,2013-11-04 13:20:00,
2013-11-04 08:35:00,55.4,55.0,30.37,NE,49,1.0,-999.0,97,-99.99,,,0.00,weatherlink.com 1.10,2013-11-04 13:35:00,
2013-11-04 08:50:00,56.5,56.0,30.38,SW,231,0.0,-999.0,97,-99.99,,,0.00,weatherlink.com 1.10,2013-11-04 13:50:00,
2013-11-04 09:05:00,57.4,57.0,30.38,SE,134,1.0,-999.0,98,-99.99,,,0.00,weatherlink.com 1.10,2013-11-04 14:05:00,
2013-11-04 09:21:00,58.4,58.0,30.38,North,355,1.0,-999.0,99,-99.99,,,0.00,weatherlink.com 1.10,2013-11-04 14:21:00,
2013-11-04 09:36:00,59.2,58.0,30.38,NNE,23,2.0,-999.0,97,-99.99,,,0.00,weatherlink.com 1.10,2013-11-04 14:36:00,
2013-11-04 09:51:00,60.4,60.0,30.38,SSE,166,1.0,-999.0,98,-99.99,,,0.00,weatherlink.com 1.10,2013-11-04 14:51:00,
2013-11-04 10:06:00,61.8,61.0,30.38,NE,55,0.0,-999.0,97,-99.99,,,0.00,weatherlink.com 1.10,2013-11-04 15:06:00,
2013-11-04 10:21:00,62.8,61.0,30.39,ENE,77,2.0,-999.0,95,-99.99,,,0.00,weatherlink.com 1.10,2013-11-04 15:21:00,
2013-11-04 10:36:00,63.5,62.0,30.39,WNW,298,2.0,-999.0,95,-99.99,,,0.00,weatherlink.com 1.10,2013-11-04 15:36:00,
2013-11-04 10:51:00,64.1,62.0,30.39,South,175,0.0,-999.0,94,-99.99,,,0.00,weatherlink.com 1.10,2013-11-04 15:51:00,
2013-11-04 11:06:00,64.5,63.0,30.38,West,259,1.0,-999.0,93,-99.99,,,0.00,weatherlink.com 1.10,2013-11-04 16:06:00,
2013-11-04 11:21:00,64.8,63.0,30.39,WSW,249,3.0,-999.0,94,-99.99,,,0.00,weatherlink.com 1.10,2013-11-04 16:21:00,
2013-11-04 11:36:00,65.2,60.0,30.39,SE,133,5.0,-999.0,84,-99.99,,,0.00,weatherlink.com 1.10,2013-11-04 16:36:00,
2013-11-04 11:51:00,65.1,59.0,30.39,ENE,78,0.0,-999.0,81,-99.99,,,0.00,weatherlink.com 1.10,2013-11-04 16:51:00,
2013-11-04 12:06:00,65.7,60.0,30.38,SE,144,0.0,-999.0,82,-99.99,,,0.00,weatherlink.com 1.10,2013-11-04 17:06:00,
2013-11-04 12:21:00,65.6,60.0,30.38,SSE,155,0.0,-999.0,82,-99.99,,,0.00,weatherlink.com 1.10,2013-11-04 17:21:00,
2013-11-04 12:36:00,65.8,60.0,30.37,East,81,3.0,-999.0,81,-99.99,,,0.00,weatherlink.com 1.10,2013-11-04 17:36:00,
2013-11-04 12:51:00,65.9,60.0,30.36,WNW,288,0.0,-999.0,82,-99.99,,,0.00,weatherlink.com 1.10,2013-11-04 17:51:00,
2013-11-04 13:06:00,65.9,61.0,30.36,SSW,192,0.0,-999.0,84,-99.99,,,0.00,weatherlink.com 1.10,2013-11-04 18:06:00,
2013-11-04 13:21:00,66.2,60.0,30.35,SW,231,0.0,-999.0,81,-99.99,,,0.00,weatherlink.com 1.10,2013-11-04 18:21:00,
2013-11-04 13:36:00,66.1,60.0,30.35,NNE,14,1.0,-999.0,80,-99.99,,,0.00,weatherlink.com 1.10,2013-11-04 18:36:00,
2013-11-04 13:52:00,65.7,60.0,30.35,WNW,300,0.0,-999.0,82,-99.99,,,0.00,weatherlink.com 1.10,2013-11-04 18:52:00,
2013-11-04 14:06:00,65.7,60.0,30.35,North,360,1.0,-999.0,83,-99.99,,,0.00,weatherlink.com 1.10,2013-11-04 19:06:00,
2013-11-04 14:21:00,65.7,60.0,30.34,ENE,62,0.0,-999.0,82,-99.99,,,0.00,weatherlink.com 1.10,2013-11-04 19:21:00,
2013-11-04 14:36:00,65.4,61.0,30.35,WSW,253,0.0,-999.0,86,-99.99,,,0.00,weatherlink.com 1.10,2013-11-04 19:36:00,
2013-11-04 14:51:00,65.4,61.0,30.34,SW,232,0.0,-999.0,85,-99.99,,,0.00,weatherlink.com 1.10,2013-11-04 19:51:00,
2013-11-04 15:06:00,65.4,62.0,30.35,East,96,0.0,-999.0,89,-99.99,,,0.00,weatherlink.com 1.10,2013-11-04 20:06:00,
2013-11-04 15:21:00,65.0,63.0,30.35,WSW,239,0.0,-999.0,92,-99.99,,,0.00,weatherlink.com 1.10,2013-11-04 20:21:00,
2013-11-04 15:36:00,64.6,64.0,30.35,NNW,338,0.0,-999.0,97,-99.99,,,0.00,weatherlink.com 1.10,2013-11-04 20:36:00,
2013-11-04 15:51:00,63.8,63.0,30.35,NE,44,5.0,-999.0,97,-99.99,,,0.00,weatherlink.com 1.10,2013-11-04 20:51:00,
2013-11-04 16:06:00,63.2,63.0,30.35,ESE,114,1.0,-999.0,98,-99.99,,,0.00,weatherlink.com 1.10,2013-11-04 21:06:00,
2013-11-04 16:21:00,62.7,62.0,30.35,WNW,288,4.0,-999.0,98,-99.99,,,0.00,weatherlink.com 1.10,2013-11-04 21:21:00,
2013-11-04 16:36:00,62.1,62.0,30.35,WNW,286,0.0,-999.0,98,-99.99,,,0.00,weatherlink.com 1.10,2013-11-04 21:36:00,
2013-11-04 16:51:00,61.4,61.0,30.35,ENE,63,0.0,-999.0,98,-99.99,,,0.00,weatherlink.com 1.10,2013-11-04 21:51:00,
2013-11-04 17:06:00,60.5,60.0,30.35,North,5,0.0,-999.0,99,-99.99,,,0.00,weatherlink.com 1.10,2013-11-04 22:06:00,
2013-11-04 17:21:00,59.8,59.0,30.35,SSE,167,0.0,-999.0,98,-99.99,,,0.00,weatherlink.com 1.10,2013-11-04 22:21:00,
2013-11-04 17:36:00,59.3,59.0,30.36,North,360,0.0,-999.0,97,-99.99,,,0.00,weatherlink.com 1.10,2013-11-04 22:36:00,
2013-11-04 17:51:00,58.5,57.0,30.36,NNE,21,0.0,-999.0,96,-99.99,,,0.00,weatherlink.com 1.10,2013-11-04 22:51:00,
2013-11-04 18:06:00,57.7,56.0,30.37,ESE,108,0.0,-999.0,93,-99.99,,,0.00,weatherlink.com 1.10,2013-11-04 23:06:00,
2013-11-04 18:21:00,56.7,54.0,30.38,ESE,108,0.0,-999.0,90,-99.99,,,0.00,weatherlink.com 1.10,2013-11-04 23:21:00,
2013-11-04 18:36:00,56.1,52.0,30.38,East,92,0.0,-999.0,86,-99.99,,,0.00,weatherlink.com 1.10,2013-11-04 23:36:00,
2013-11-04 18:51:00,55.8,51.0,30.38,East,92,0.0,-999.0,85,-99.99,,,0.00,weatherlink.com 1.10,2013-11-04 23:51:00,
2013-11-04 19:06:00,55.4,51.0,30.38,East,92,0.0,-999.0,84,-99.99,,,0.00,weatherlink.com 1.10,2013-11-05 00:06:00,
2013-11-04 19:21:00,54.9,48.0,30.38,East,92,0.0,-999.0,78,-99.99,,,0.00,weatherlink.com 1.10,2013-11-05 00:21:00,
2013-11-04 19:36:00,54.4,46.0,30.38,East,92,0.0,-999.0,74,-99.99,,,0.00,weatherlink.com 1.10,2013-11-05 00:36:00,
2013-11-04 19:51:00,53.8,50.0,30.38,NW,305,0.0,-999.0,86,-99.99,,,0.00,weatherlink.com 1.10,2013-11-05 00:51:00,
2013-11-04 20:06:00,54.3,53.0,30.38,West,265,0.0,-999.0,96,-99.99,,,0.00,weatherlink.com 1.10,2013-11-05 01:06:00,
2013-11-04 20:21:00,54.7,55.0,30.38,SE,130,3.0,-999.0,99,-99.99,,,0.00,weatherlink.com 1.10,2013-11-05 01:21:00,
2013-11-04 20:36:00,55.2,55.0,30.38,SW,229,0.0,-999.0,99,-99.99,,,0.00,weatherlink.com 1.10,2013-11-05 01:36:00,
2013-11-04 20:51:00,55.1,55.0,30.38,NNW,327,0.0,-999.0,100,-99.99,,,0.00,weatherlink.com 1.10,2013-11-05 01:51:00,
2013-11-04 21:06:00,55.1,55.0,30.38,NW,315,2.0,-999.0,99,-99.99,,,0.00,weatherlink.com 1.10,2013-11-05 02:06:00,
2013-11-04 21:21:00,54.9,55.0,30.39,SW,235,0.0,-999.0,99,-99.99,,,0.00,weatherlink.com 1.10,2013-11-05 02:21:00,
2013-11-04 21:36:00,54.6,54.0,30.39,SSW,207,0.0,-999.0,99,-99.99,,,0.00,weatherlink.com 1.10,2013-11-05 02:36:00,
2013-11-04 21:51:00,54.2,54.0,30.39,WNW,293,0.0,-999.0,100,-99.99,,,0.00,weatherlink.com 1.10,2013-11-05 02:51:00,
2013-11-04 22:06:00,53.9,54.0,30.39,SE,144,0.0,-999.0,99,-99.99,,,0.00,weatherlink.com 1.10,2013-11-05 03:06:00,
2013-11-04 22:21:00,53.5,54.0,30.39,SE,139,0.0,-999.0,100,-99.99,,,0.00,weatherlink.com 1.10,2013-11-05 03:21:00,
2013-11-04 22:36:00,53.1,53.0,30.39,South,182,0.0,-999.0,99,-99.99,,,0.00,weatherlink.com 1.10,2013-11-05 03:36:00,
2013-11-04 22:51:00,52.7,53.0,30.39,South,172,0.0,-999.0,99,-99.99,,,0.00,weatherlink.com 1.10,2013-11-05 03:51:00,
2013-11-04 23:06:00,52.5,52.0,30.39,SW,223,1.0,-999.0,98,-99.99,,,0.00,weatherlink.com 1.10,2013-11-05 04:06:00,
2013-11-04 23:21:00,52.3,52.0,30.39,SSE,166,0.0,-999.0,98,-99.99,,,0.00,weatherlink.com 1.10,2013-11-05 04:21:00,
2013-11-04 23:36:00,52.1,51.0,30.39,SSE,157,0.0,-999.0,97,-99.99,,,0.00,weatherlink.com 1.10,2013-11-05 04:36:00,
2013-11-04 23:51:00,51.8,51.0,30.39,SSE,159,0.0,-999.0,98,-99.99,,,0.00,weatherlink.com 1.10,2013-11-05 04:51:00,